Forside
METAR-TAF:

METAR-TAF

Lufthavne :

Oelwein Municipal Airport

Oelwein, Iowa, USA

Breddekreds: 42-40-51N, længdekreds: 091-58-28W, højde: 328 m

Aktuelle vejr

Denne rapport blev lavet for 18 minutter siden, kl. 07:15 UTC
Vind 7 kt fra syd
Temperatur 0°C
Fugtighed 93%
Tryk 1015 hPa
Sigt: 16.1 km
skyfri

METAR: KOLZ 290715Z AUTO 19007KT 10SM CLR M00/M01 A2996 RMK A01

Tid: 01:33 (07:33 UTC)


TAF: fraværende

Vejrobservationer og prognoser fra mere end 4000 lufthavne (METAR og TAF).

De gule og røde prikker repræsenterer de meteorologiske stationer.

Flyt musen over at se navnet på stationen.

Så klik over at se vejr observationer og prognoser.

At skifte det kort: Klik på de grønne knapper med et sort kors for at zoome ind; på den grønne knap med en bindestreg for at zoome ud; eller på de grønne pile for tilstødende kort.


METAR-TAF: